Погода в Уржаре

Погода в Уржаре : погода сейчас, прогноз погоды и архив. Всё, что Вы хотите узнать о погоде в Уржаре!

Поиск расширенной информации на нашем сайте:

Другие новости

Новости СМИ2

Главная страница сайта

Новости сайта

03.07.2017

Напоминаем, что на нашем специализированном сайте Метеоцентр.Азия вы можете получить высокодетализированные автоматические прогнозы погоды по пунктам России, СНГ и мира в авиационном формате (включающие направление и скорость ветра, видимость, явления погоды, количество и форму облачности, нижнюю и верхнюю границу облачности).


Погода в Уржаре - сегодня

Время (UTC), дата Ветер
(°,м/с) 
Видим.   Явления Облачность Т
(°С)
Тd
(°С)
f(%) Тe
(°С)
Pmin
(гПа)
dP
(гПа)
Po
(мм)
O2
(г/м3)
Тmin Tmax R s Состояние
почвы
18 13.12.17 тихо ()   н/о    ясно 
-17.5 -19.8 82 -18  1041.4  0.3  732  317    -3.7       
21 13.12.17 тихо ()   н/о    ясно 
-17.6 -19.8 83 -18  1041.7  0.3  732  317           
00 14.12.17 тихо ()   н/о    ясно 
-19.2 -21.2 84 -19  1042.5  0.3  732  319           
03 14.12.17 тихо ()   20000 м    ясно 
-20 -22.4 81 -20  1044.4  1.6  734  321        равномерный
сухой снег
100% 
06 14.12.17 тихо ()   20000 м    ясно 
-5 -12.7 55 -5  1040.9  0.3  734  302  -20.5         
09 14.12.17 тихо ()   20000 м    ясно 
-0.8 -9.6 51 -1  1039.2  -0.6  733  297           
12 14.12.17 тихо ()   н/о    ясно 
-15.4 -18.8 75 -15  1044  1.1  734  315           
15 14.12.17 тихо ()   н/о    ясно 
-16.4 -19 80 -16  1044.6  0.3  734  316    -0.4       
18 14.12.17 тихо ()   н/о    ясно 
-16.6 -18.8 83 -17  1043.8  -0.8  734  316    -0.4       
21 14.12.17 тихо ()   н/о    ясно 
-17 -18.9 85 -17  1043.9  734  317           
00 15.12.17 120 (ЮВ) н/о    ясно 
-15.2 -17.6 82 -15  1042.6  -0.8  733  314           
03 15.12.17 080 (В) 20000 м    ясно 
-8.4 -17.2 49 -8  1041.9  734  306  -17.4      равномерный
сухой снег
100% 
06 15.12.17 070 (В) 20000 м    ясно 
-1 -12.7 41 -3  1039.8  -0.3  734  298  -17.4         
09 15.12.17 110 (В) 20000 м    ясно 
+0.4 -11.7 40 1038.6  -0.9  733  296           
12 15.12.17 тихо ()   н/о    ясно 
-8.8 -16.6 53 -9  1041.6  0.8  734  307           
15 15.12.17 тихо ()   н/о    ясно 
-11.2 -15.6 70 -11  1041.8  -0.4  733  309    +0.4       
18 15.12.17 тихо ()   н/о    ясно 
-13.3 -16.3 78 -13  1041.5  -0.8  733  312    +0.4       
21 15.12.17 тихо ()   н/о    ясно 
-14.4 -17.1 80 -14  1040.9  -0.8  732  313           
00 16.12.17 тихо ()   н/о    ясно 
-15.2 -17.6 82 -15  1040.3  -0.7  732  314           
03 16.12.17 тихо ()   20000 м    ясно 
-17.2 -21.4 70 -17  1041.7  0.8  732  316  -17.5      равномерный
сухой снег
100% 
06 16.12.17 тихо ()   20000 м    ясно 
+1.4 -8.5 48 +1  1036.2  -0.9  732  294  -17.5         
09 16.12.17 110 (В) 20000 м    ясно 
+2 -12.1 34 +1  1035.2  -0.8  731  293           
12 16.12.17 тихо ()   н/о    ясно 
-8.6 -16.9 51 -9  1038.8  732  306           
15 16.12.17 тихо ()   н/о    ясно 
-15.4 -18.5 77 -15  1040.9  0.4  732  314    +2.5       
18 16.12.17 тихо ()   н/о    ясно 
-16.3 -18.9 80 -16  1041  -0.2  732  315    +2.5       
Время (UTC), дата Ветер
(°,м/с) 
Видим.   Явления Облачность Т
(°С)
Тd
(°С)
f(%) Тe
(°С)
Pmin
(гПа)
dP
(гПа)
Po
(мм)
O2
(г/м3)
Тmin Tmax R s Состояние
почвы

Для получения пояснительной информации подведите курсор к названию столбца.

ПОГОДА в Уржаре - архив

Всё, что Вы хотите узнать о погоде в Уржаре - удобно и подробно!

Выберите нужную дату (начиная с 1 января 2015* года) и нажмите кнопку "Найти".
Будут отображены архивные сводки погоды по пункту Уржар, начиная с указанной даты.


Отображать данные в формате CSV (для использования в таблицах Excel)


Внимание! Наш архив погоды предназначен исключительно для личного некоммерческого использования в познавательных целях. Если Вам необходимы официальные справки о состоянии погоды (для производственных, юридических, коммерческих и т.п. целей), обращайтесь в органы Росгидромета.

*Примечание: данная дата относится к архиву по метеостанциям СССР (Россия, СНГ, Балтия).
Архив по метеостанциям Зарубежной Европы и Азии (кроме Китая) хранится 10 дней, по другим регионам земного шара (Китай, Африка, Америка, Австралия, Океания) - 1 день.

Уржар - район местоположения метеостанции


Название, широта, долгота, высота метеостанции:
Уржар 47.1°ш. 81.6°д. 491 м над ур. моря [Казахстан]

Дополнительная информация

В oтличие oт бoльшинства пoгoдных сайтoв мы публикуем пoдрoбную метеoинфoрмацию в детальнoм прoфессиoнальнoм фoрмате.

Характеристики температуры и влажнoсти вoздуха измеряются на высoте 2 м в тени вдали oт зданий и деревьев.
Скoрoсть ветра измеряется на высoте 10 м (на урoвне рoста челoвека скoрoсть ветра ниже в 1.5-2 раза). Если метеoстанция нахoдится в гoрoде или в лесу, тo скoрoсть ветра занижена на 2-4 м/с пo сравнению с oткрытым местoм. Скoрoсть ветра над акватoриями крупных рек и oзёр, а также на вершинах хoлмoв на 2-5 м/с выше, чем в oбычных услoвиях.
Атмoсфернoе давление в разных тoчках местнoсти мoжет значительнo oтличаться oт давления на метеoстанции, в зависимoсти oт услoвий рельефа (при пoдъёме на 10 м давление пoнижается примернo на 1 мм рт.ст.).